Satellite-Ground Cal/Val Site Overpasses Predictions

Prediction of Satellite NPP Overpassing Cal/Val Site: Antarctic Dome C

Ground Cal/Val Site Location: Latitude: -75.10, Longitude: 123.35; Satellite-Ground Site NADIR distance within 100 km.

Table of predicted overpasses for the next 14.0 days since TLE Epoch: 8/15/2015
Interval Starting Time Ending Time Minimum Distance Time Minimum Distance (km)
1 08/17/2015 07:35:16 08/17/2015 07:35:45 08/17/2015 07:35:30 3.64
2 08/20/2015 14:58:39 08/20/2015 14:59:08 08/20/2015 14:58:53 18.37
3 08/21/2015 14:39:57 08/21/2015 14:40:10 08/21/2015 14:40:04 88.75
4 08/22/2015 07:41:27 08/22/2015 07:41:54 08/22/2015 07:41:41 39.00
5 08/23/2015 07:22:40 08/23/2015 07:23:01 08/23/2015 07:22:50 71.13
6 08/25/2015 15:04:53 08/25/2015 15:05:17 08/25/2015 15:05:05 55.22
7 08/26/2015 14:46:01 08/26/2015 14:46:26 08/26/2015 14:46:14 53.97
8 08/27/2015 07:47:42 08/27/2015 07:48:02 08/27/2015 07:47:52 74.07


NCC Satellite Cal/Val Overpasses Prediction Service
